| time (UTC) | temp F | wind direction | speed MPH | gust MPH | rain 1hr in | rain 24hr in | rain mn in | humidity % | barometer mb |
| 20260507151836 | 64 | 77 | 2.0 | 4.0 | 0.00 | 0.00 | 0.10 | 69 | 1020.3 |
| 20260507150828 | 64 | 65 | 2.0 | 6.0 | 0.00 | 0.00 | 0.10 | 70 | 1020.3 |
| 20260507144818 | 63 | 67 | 2.0 | 4.0 | 0.00 | 0.00 | 0.10 | 73 | 1020.3 |
| 20260507143804 | 61 | 34 | 2.0 | 4.0 | 0.00 | 0.00 | 0.10 | 75 | 1020.6 |
| 20260507142819 | 61 | 38 | 2.0 | 4.0 | 0.00 | 0.00 | 0.10 | 77 | 1020.6 |
| 20260507141810 | 61 | 76 | 1.0 | 4.0 | 0.00 | 0.00 | 0.10 | 78 | 1020.3 |
| 20260507135807 | 59 | 149 | 1.0 | 4.0 | 0.00 | 0.00 | 0.10 | 83 | 1020.6 |
| 20260507133846 | 57 | 140 | 2.0 | 3.0 | 0.00 | 0.00 | 0.10 | 85 | 1020.6 |
| 20260507132834 | 56 | 141 | 1.0 | 2.0 | 0.00 | 0.00 | 0.10 | 88 | 1020.9 |
| 20260507131809 | 55 | 89 | 1.0 | 2.0 | 0.00 | 0.00 | 0.10 | 89 | 1020.9 |
| 20260507125837 | 55 | 55 | 1.0 | 2.0 | 0.00 | 0.00 | 0.10 | 89 | 1020.6 |
| 20260507124847 | 55 | 61 | 0.0 | 2.0 | 0.00 | 0.00 | 0.10 | 90 | 1020.6 |
| 20260507123848 | 54 | 63 | 0.0 | 1.0 | 0.00 | 0.00 | 0.10 | 91 | 1020.6 |
| 20260507122810 | 53 | 76 | 0.0 | 1.0 | 0.00 | 0.00 | 0.10 | 91 | 1020.6 |
| 20260507121832 | 53 | 101 | 0.0 | 1.0 | 0.00 | 0.00 | 0.10 | 91 | 1020.6 |
| 20260507120834 | 53 | 95 | 0.0 | 2.0 | 0.00 | 0.00 | 0.10 | 92 | 1020.6 |
| 20260507115821 | 52 | 99 | 0.0 | 2.0 | 0.00 | 0.00 | 0.10 | 92 | 1020.6 |
| 20260507114838 | 52 | 65 | 0.0 | 1.0 | 0.00 | 0.00 | 0.10 | 92 | 1020.6 |
| 20260507112824 | 53 | 44 | 0.0 | 1.0 | 0.00 | 0.00 | 0.10 | 92 | 1020.3 |
| 20260507111830 | 53 | 176 | 1.0 | 2.0 | 0.00 | 0.00 | 0.10 | 92 | 1019.9 |
| 20260507110833 | 53 | 212 | 1.0 | 2.0 | 0.00 | 0.00 | 0.10 | 92 | 1019.9 |
| 20260507105825 | 53 | 207 | 1.0 | 3.0 | 0.00 | 0.00 | 0.10 | 91 | 1019.9 |
| 20260507104809 | 53 | 276 | 1.0 | 2.0 | 0.00 | 0.00 | 0.10 | 90 | 1019.9 |
| 20260507103810 | 53 | 49 | 1.0 | 2.0 | 0.00 | 0.00 | 0.10 | 91 | 1019.6 |
| 20260507102847 | 53 | 209 | 1.0 | 3.0 | 0.00 | 0.00 | 0.10 | 91 | 1019.6 |
| 20260507101847 | 54 | 75 | 1.0 | 3.0 | 0.00 | 0.00 | 0.10 | 90 | 1019.2 |
| 20260507100805 | 54 | 247 | 1.0 | 2.0 | 0.00 | 0.00 | 0.10 | 90 | 1019.2 |
| 20260507093819 | 54 | 179 | 1.0 | 2.0 | 0.00 | 0.00 | 0.10 | 89 | 1018.9 |
| 20260507092821 | 54 | 57 | 1.0 | 2.0 | 0.00 | 0.00 | 0.10 | 89 | 1018.6 |
| 20260507091813 | 55 | 59 | 0.0 | 1.0 | 0.00 | 0.00 | 0.10 | 89 | 1018.2 |
| 20260507090849 | 55 | 65 | 0.0 | 1.0 | 0.00 | 0.00 | 0.10 | 88 | 1018.6 |
| 20260507084844 | 55 | 88 | 1.0 | 2.0 | 0.00 | 0.00 | 0.10 | 86 | 1017.9 |
| 20260507083812 | 55 | 80 | 1.0 | 2.0 | 0.00 | 0.00 | 0.10 | 86 | 1017.9 |
| 20260507082830 | 55 | 36 | 1.0 | 2.0 | 0.00 | 0.00 | 0.10 | 87 | 1017.9 |
| 20260507081819 | 55 | 66 | 1.0 | 2.0 | 0.00 | 0.00 | 0.10 | 86 | 1017.9 |
| 20260507080821 | 56 | 29 | 1.0 | 2.0 | 0.00 | 0.00 | 0.10 | 85 | 1018.2 |
| 20260507074832 | 56 | 86 | 1.0 | 2.0 | 0.00 | 0.00 | 0.10 | 85 | 1018.2 |
| 20260507073838 | 57 | 27 | 1.0 | 2.0 | 0.00 | 0.00 | 0.10 | 84 | 1017.9 |
| 20260507072834 | 57 | 40 | 1.0 | 4.0 | 0.00 | 0.00 | 0.10 | 83 | 1017.9 |
| 20260507071848 | 57 | 37 | 1.0 | 3.0 | 0.00 | 0.00 | 0.10 | 83 | 1018.2 |
| 20260507070844 | 57 | 97 | 1.0 | 2.0 | 0.00 | 0.00 | 0.10 | 83 | 1017.6 |
| 20260507065822 | 57 | 33 | 2.0 | 3.0 | 0.00 | 0.00 | 0.10 | 82 | 1017.6 |
| 20260507064845 | 57 | 36 | 2.0 | 4.0 | 0.00 | 0.00 | 0.10 | 82 | 1017.6 |
| 20260507063839 | 57 | 38 | 2.0 | 3.0 | 0.00 | 0.00 | 0.10 | 83 | 1017.2 |
| 20260507061834 | 58 | 56 | 1.0 | 2.0 | 0.00 | 0.00 | 0.10 | 83 | 1017.2 |
| 20260507060830 | 58 | 46 | 1.0 | 3.0 | 0.00 | 0.00 | 0.10 | 83 | 1017.2 |
| 20260507055806 | 58 | 51 | 1.0 | 2.0 | 0.00 | 0.00 | 0.10 | 82 | 1017.2 |
| 20260507054814 | 58 | 40 | 1.0 | 4.0 | 0.00 | 0.00 | 0.10 | 81 | 1017.2 |
| 20260507053818 | 58 | 41 | 1.0 | 2.0 | 0.00 | 0.00 | 0.10 | 81 | 1017.2 |
| 20260507052811 | 59 | 51 | 1.0 | 3.0 | 0.00 | 0.00 | 0.10 | 80 | 1017.6 |
| 20260507050808 | 59 | 43 | 2.0 | 5.0 | 0.00 | 0.00 | 0.10 | 79 | 1017.6 |
| 20260507044819 | 59 | 55 | 2.0 | 6.0 | 0.00 | 0.00 | 5.84 | 79 | 1017.2 |
| 20260507043825 | 59 | 53 | 2.0 | 4.0 | 0.00 | 0.00 | 5.74 | 79 | 1017.2 |
| 20260507042817 | 59 | 45 | 2.0 | 4.0 | 0.00 | 0.00 | 5.64 | 79 | 1017.2 |
| 20260507041805 | 60 | 39 | 2.0 | 6.0 | 0.00 | 0.00 | 5.54 | 78 | 1017.2 |
| 20260507040804 | 60 | 37 | 2.0 | 4.0 | 0.00 | 0.00 | 5.43 | 77 | 1017.2 |
| 20260507034838 | 61 | 128 | 3.0 | 7.0 | 0.00 | 0.00 | 5.24 | 76 | 1017.6 |
| 20260507033830 | 61 | 32 | 2.0 | 5.0 | 0.00 | 0.00 | 5.14 | 76 | 1017.6 |
| 20260507032831 | 61 | 100 | 2.0 | 4.0 | 0.00 | 0.00 | 5.04 | 76 | 1017.6 |
| 20260507031832 | 62 | 54 | 2.0 | 6.0 | 0.00 | 0.00 | 4.94 | 78 | 1017.2 |
| 20260507030806 | 62 | 44 | 3.0 | 6.0 | 0.00 | 0.00 | 4.84 | 78 | 1017.2 |
| 20260507025812 | 62 | 46 | 2.0 | 4.0 | 0.00 | 0.00 | 4.74 | 78 | 1017.2 |
| 20260507024841 | 62 | 42 | 2.0 | 4.0 | 0.00 | 0.00 | 4.64 | 78 | 1017.2 |
| 20260507023845 | 62 | 49 | 1.0 | 4.0 | 0.00 | 0.00 | 4.54 | 78 | 1016.9 |
| 20260507022826 | 62 | 69 | 2.0 | 4.0 | 0.00 | 0.00 | 4.44 | 78 | 1016.5 |
| 20260507021814 | 62 | 56 | 1.0 | 2.0 | 0.00 | 0.00 | 4.34 | 80 | 1016.5 |
| 20260507015823 | 62 | 69 | 2.0 | 4.0 | 0.00 | 0.00 | 4.14 | 79 | 1016.2 |
| 20260507014838 | 62 | 46 | 2.0 | 3.0 | 0.00 | 0.00 | 4.04 | 79 | 1015.9 |
| 20260507013819 | 63 | 66 | 2.0 | 5.0 | 0.00 | 0.00 | 3.94 | 80 | 1015.2 |
| 20260507012810 | 63 | 39 | 2.0 | 4.0 | 0.00 | 0.00 | 3.84 | 81 | 1015.2 |
| 20260507011821 | 62 | 45 | 1.0 | 3.0 | 0.00 | 0.00 | 3.74 | 85 | 1015.2 |
| 20260507010839 | 62 | 65 | 1.0 | 2.0 | 0.00 | 0.00 | 3.64 | 87 | 1014.8 |
| 20260507005823 | 63 | 78 | 0.0 | 1.0 | 0.00 | 0.00 | 3.54 | 87 | 1014.8 |
| 20260507004838 | 62 | 70 | 1.0 | 2.0 | 0.00 | 0.00 | 3.44 | 86 | 1014.8 |
| 20260507003836 | 63 | 68 | 2.0 | 3.0 | 0.00 | 0.00 | 3.34 | 87 | 1014.8 |
| 20260507001830 | 63 | 80 | 0.0 | 1.0 | 0.00 | 0.00 | 3.14 | 86 | 1014.5 |
| 20260506235831 | 63 | 76 | 1.0 | 3.0 | 0.00 | 0.00 | 2.94 | 84 | 1014.2 |
| 20260506234845 | 64 | 98 | 1.0 | 2.0 | 0.00 | 0.00 | 2.84 | 84 | 1014.2 |
| 20260506233834 | 63 | 71 | 1.0 | 3.0 | 0.00 | 0.00 | 2.74 | 85 | 1014.2 |
| 20260506232814 | 63 | 79 | 1.0 | 2.0 | 0.00 | 0.00 | 2.64 | 85 | 1014.2 |
| 20260506231812 | 63 | 77 | 1.0 | 4.0 | 0.00 | 0.00 | 2.54 | 87 | 1014.2 |
| 20260506230809 | 63 | 87 | 1.0 | 3.0 | 0.00 | 0.00 | 2.44 | 87 | 1013.8 |
| 20260506225848 | 63 | 65 | 1.0 | 3.0 | 0.00 | 0.00 | 2.34 | 87 | 1014.2 |
| 20260506224847 | 63 | 74 | 1.0 | 2.0 | 0.00 | 0.00 | 2.24 | 86 | 1013.8 |
| 20260506223841 | 63 | 42 | 1.0 | 2.0 | 0.00 | 0.00 | 2.14 | 86 | 1013.8 |
| 20260506222824 | 62 | 60 | 0.0 | 2.0 | 0.00 | 0.00 | 2.04 | 86 | 1013.8 |
| 20260506221831 | 61 | 77 | 1.0 | 2.0 | 0.00 | 0.00 | 1.94 | 88 | 1014.2 |
| 20260506220807 | 61 | 53 | 2.0 | 3.0 | 0.00 | 0.00 | 1.84 | 89 | 1013.8 |
| 20260506215827 | 61 | 37 | 1.0 | 3.0 | 0.00 | 0.00 | 1.74 | 88 | 1013.8 |
| 20260506212806 | 63 | 120 | 2.0 | 3.0 | 0.00 | 0.00 | 1.59 | 74 | 1014.2 |
| 20260506211813 | 63 | 41 | 2.0 | 4.0 | 0.00 | 0.00 | 1.55 | 73 | 1014.2 |
| 20260506205839 | 63 | 213 | 1.0 | 3.0 | 0.00 | 0.00 | 1.47 | 74 | 1014.2 |
| 20260506203817 | 63 | 64 | 2.0 | 4.0 | 0.00 | 0.00 | 1.39 | 74 | 1014.2 |
| 20260506201841 | 63 | 182 | 2.0 | 4.0 | 0.00 | 0.00 | 1.31 | 74 | 1014.5 |
| 20260506200817 | 61 | 150 | 2.0 | 5.0 | 0.00 | 0.00 | 1.27 | 75 | 1014.8 |
| 20260506195847 | 61 | 120 | 2.0 | 4.0 | 0.00 | 0.00 | 1.23 | 76 | 1014.5 |
| 20260506194847 | 61 | 154 | 2.0 | 4.0 | 0.00 | 0.00 | 1.19 | 76 | 1014.8 |
| 20260506193841 | 60 | 142 | 2.0 | 5.0 | 0.00 | 0.00 | 1.15 | 76 | 1015.2 |
| 20260506192821 | 59 | 271 | 2.0 | 5.0 | 0.00 | 0.00 | 1.11 | 77 | 1015.2 |
| 20260506191840 | 59 | 32 | 2.0 | 5.0 | 0.00 | 0.00 | 1.07 | 78 | 1015.5 |
| 20260506190828 | 58 | 118 | 1.0 | 3.0 | 0.00 | 0.00 | 1.03 | 78 | 1015.2 |
| 20260506185842 | 58 | 60 | 2.0 | 4.0 | 0.00 | 0.00 | 9.94 | 79 | 1015.5 |
| 20260506183819 | 57 | 119 | 2.0 | 4.0 | 0.00 | 0.00 | 9.15 | 80 | 1015.9 |
| 20260506181811 | 57 | 283 | 3.0 | 6.0 | 0.00 | 0.00 | 8.35 | 81 | 1014.8 |
| 20260506180821 | 57 | 245 | 4.0 | 7.0 | 0.00 | 0.00 | 7.95 | 81 | 1014.2 |
| 20260506175831 | 57 | 124 | 2.0 | 5.0 | 0.00 | 0.00 | 7.55 | 81 | 1014.5 |
| 20260506174818 | 56 | 126 | 4.0 | 6.0 | 0.00 | 0.00 | 7.15 | 82 | 1014.5 |
| 20260506170849 | 55 | 89 | 3.0 | 4.0 | 0.00 | 0.00 | 5.55 | 86 | 1014.8 |
| 20260506165809 | 54 | 71 | 2.0 | 6.0 | 0.00 | 0.00 | 5.15 | 87 | 1014.8 |
| 20260506164821 | 54 | 59 | 2.0 | 6.0 | 0.00 | 0.00 | 4.75 | 87 | 1014.8 |
| 20260506162810 | 54 | 116 | 2.0 | 4.0 | 0.00 | 0.00 | 3.95 | 90 | 1015.2 |
| 20260506161811 | 54 | 55 | 2.0 | 5.0 | 0.00 | 0.00 | 3.55 | 90 | 1015.2 |
| 20260506160816 | 54 | 31 | 4.0 | 6.0 | 0.00 | 0.00 | 3.15 | 90 | 1015.5 |
| 20260506155828 | 54 | 104 | 3.0 | 4.0 | 0.00 | 0.00 | 2.75 | 91 | 1014.8 |
| 20260506154840 | 54 | 88 | 3.0 | 5.0 | 0.00 | 0.00 | 2.35 | 92 | 1014.5 |